Hourly Data Report for March 02, 2021

KUGAARUK CLIMATE
NUNAVUT
Current Station Operator: ECCC - MSC

68°32'15.060" N
89°47'47.020" W
15.80 m
2303094
71407
NBB

Download Data

Hourly Data (March 2021)
Hourly Data Report for March 2, 2021
TIME
LST
Temp Definition
°C
Dew Point Definition
°C
Rel Hum Definition
%
Precip. Amount Definition
mm

Wind Dir Definition
10's deg

Wind Spd Definition
km/h
Visibility Definition
km
Stn Press Definition
kPa
Hmdx Definition


Wind Chill Definition


Weather Definition


00:00 -44.4 -48.3 65 0.0 4 3   100.90   -49 LegendNANA
01:00 -43.7 -47.6 65 0.0 7 5   100.87   -51 LegendNANA
02:00 -42.9 -46.8 66 0.0 6 7   100.85   -52 LegendNANA
03:00 -42.2 -46.0 66 0.0 7 2   100.77   -45 LegendNANA
04:00 -42.2 -46.1 65 0.0 6 13   100.73   -55 LegendNANA
05:00 -41.8 -45.7 66 0.0 5 5   100.75   -49 LegendNANA
06:00 -41.4 -45.2 66 0.0 4 4   100.72   -47 LegendNANA
07:00 -40.9 -44.8 66 0.0 2 6   100.68   -49 LegendNANA
08:00 -39.8 -43.7 66 0.0 17 3   100.62   -44 LegendNANA
09:00 -35.4 -39.3 67 0.2 22 20   100.59   -50 LegendNANA
10:00 -35.1 -39.4 65 0.0 21 23   100.61   -50 LegendNANA
11:00 -35.0 -39.6 63 0.0 22 23   100.60   -50 LegendNANA
12:00 -35.0 -39.5 64 0.0 22 22   100.59   -50 LegendNANA
13:00 -35.0 -39.3 65 0.0 24 13   100.58   -47 LegendNANA
14:00 -35.5 -39.5 67 0.0 23 13   100.60   -47 LegendNANA
15:00 -35.2 -39.0 69 0.0 24 21   100.63   -50 LegendNANA
16:00 -36.1 -39.9 68 0.0 26 24   100.64   -52 LegendNANA
17:00 -36.9 -40.7 68 0.0 26 24   100.71   -53 LegendNANA
18:00 -37.6 -41.3 68 0.0 24 31   100.74   -56 LegendNANA
19:00 -37.9 -41.6 68 0.0 24 29   100.76   -56 LegendNANA
20:00 -38.3 -42.0 68 0.0 24 28   100.83   -56 LegendNANA
21:00 -38.6 -42.3 68 0.0 23 28   100.91   -56 LegendNANA
22:00 -38.6 -42.3 68 0.0 24 30   101.03   -57 LegendNANA
23:00 -39.5 -43.3 67 0.0 24 40   101.12   -60 LegendNANA

Notes on Data Quality.

Legend

  • E = Estimated
  • M = Missing
  • NA = Not Available*
  • [empty] = Indicates an unobserved value
Date modified: